LAPAN-TUBSAT

Satellite information

Favourite Embed

Satellite Type and Status

PAYLOADIN ORBIT

Key statistics

Satellite LAPAN-TUBSAT at a glance.

Uptime

6753

Days in orbit

Revolutions

≈ 14.9

Per day

Orbit

SSO

Sun Synchronous Orbit

Inclination

98.1

Latest

Satellite identification and parameters

Extended collection of information and parameters for LAPAN-TUBSAT.

Object identification

Identified? True

Debris? False

Object name: LAPAN-TUBSAT

International designator: 2007-001A

Object number (NORAD): 29709

Object ID (CCSDS): 29709

Country: INDONESIA (INDO)

Current information (Y/N): Y

RCS size: MEDIUM

Orbital parameters

Period: 96.946 minutes

Inclination: 98.1103 deg

SMA: 6990.574 km

Apoapsis: 620.305 km

Periapsis: 604.573 km

RAAN: 174.9094 deg

Eccentricy: 0.0011252

Argument of periapsis: 225.2073 deg

Mean anomaly: 134.8227 deg

Mean motion: 14.85366012 rev/day

Mean motion (dot): 0.00000428 rev/day2

B* drag term: 0.000056325 1/REarth

Two-line elements (TLE)

Creation date: July 6, 2025, 10:46 p.m.

Reference frame: TEME

Reference center: EARTH

Epoch: July 6, 2025, 9:09 p.m. UTC

TLE line 0: 0 LAPAN-TUBSAT

TLE line 1: 1 29709U 07001A 25187.88179195 .00000428 00000-0 56325-4 0 9995

TLE line 2: 2 29709 98.1103 174.9094 0011252 225.2073 134.8227 14.85366012999894

Live tracking on map

Real-time ground track for satellite LAPAN-TUBSAT.

In-orbit conjunctions

There are no conjunctions computed for LAPAN-TUBSAT, at the moment. Check back to stay up to date, as we update our databases every day.

Go to all conjunctions

Associated space launch

Indian Earth observation and re-entry technology satellites

LAPAN-TUBSAT was lifted into orbit during the mission ‘PSLV | Cartosat 2 & SRE 1’, on board a PSLV space rocket.

The launch took place on Jan. 10, 2007, 3:54 a.m. from Satish Dhawan Space Centre First Launch Pad.

For more information about the launch, click the button.

Launch to space PSLV | Cartosat 2 & SRE 1
PSLV | Cartosat 2 & SRE 1

Agency: N/A

Status: Launch Successful

Launch date: Jan. 10, 2007, 3:54 a.m. UTC

Rocket: PSLV

Launch pad: Satish Dhawan Space Centre First Launch Pad

Location: Satish Dhawan Space Centre, India

...

Latest news about this satellite

There are no fresh news available about this satellite. Check back as we update our databases every day.


Newsletter sign-up

Weekly statistics, charts and insights to help you stay on top of the space industry.